User: anonymous   Login
Location: Newark
(40.7360°N, 74.1730°W)
Time: 16:11:44
(UTC-05:00)
Language:

ISS - Orbit

View from above orbital plane
View from above orbital plane
View from above satellite
View from above satellite

Ground track
Ground track

The orbit data is extracted from the following two-line orbital elements,

1 25544U 98067A   16345.56333404  .00016717  00000-0  10270-3 0  9048
2 25544  51.6436 258.5807 0006462 315.5601  44.5032 15.53866596 32413
Epoch (UTC): 10 December 2016 13:31:12
Eccentricity: 0.0006462
inclination: 51.6436°
perigee height: 401 km
apogee height: 410 km
right ascension of ascending node: 258.5807°
argument of perigee: 315.5601°
revolutions per day: 15.53866596
mean anomaly at epoch: 44.5032°
orbit number at epoch: 3241

The dashed part of the orbit path shows where the satellite is in the earth's shadow,  

DLR